Time,TemperatureF,DewpointF,PressureIn,WindDirection,WindDirectionDegrees,WindSpeedMPH,WindSpeedGustMPH,Humidity,HourlyPrecipIn,Conditions,Clouds,dailyrainin,SoftwareType,DateUTC
2013-06-24 00:02:00,71.0,69.0,29.95,SSW,211,0.0,0.0,95,0.01,,,0.02,,2013-06-24 05:02:00,
2013-06-24 00:12:00,71.0,69.0,29.95,SSW,211,0.0,0.0,95,0.01,,,0.02,,2013-06-24 05:12:00,
2013-06-24 00:22:00,71.0,70.0,29.96,SSW,211,0.0,0.0,96,0.01,,,0.02,,2013-06-24 05:22:00,
2013-06-24 00:35:00,71.0,70.0,29.96,SSW,211,0.0,0.0,96,0.01,,,0.02,,2013-06-24 05:35:00,
2013-06-24 00:46:00,71.0,70.0,29.96,SSW,211,0.0,0.0,96,0.01,,,0.02,,2013-06-24 05:46:00,
2013-06-24 00:56:00,70.0,68.0,29.96,SSW,211,0.0,0.0,95,0.01,,,0.02,,2013-06-24 05:56:00,
2013-06-24 01:07:00,70.0,69.0,29.96,SSW,211,0.0,0.0,96,0.00,,,0.02,,2013-06-24 06:07:00,
2013-06-24 01:13:00,70.0,69.0,29.96,SSW,211,0.0,0.0,96,0.00,,,0.02,,2013-06-24 06:13:00,
2013-06-24 01:23:00,70.0,69.0,29.95,SSW,211,0.0,0.0,96,0.00,,,0.02,,2013-06-24 06:23:00,
2013-06-24 01:36:00,69.0,68.0,29.95,SSW,211,0.0,0.0,96,0.00,,,0.02,,2013-06-24 06:36:00,
2013-06-24 01:44:00,69.0,68.0,29.95,SSW,211,0.0,0.0,96,0.00,,,0.02,,2013-06-24 06:44:00,
2013-06-24 01:57:00,69.0,68.0,29.94,SSW,211,0.0,0.0,96,0.00,,,0.02,,2013-06-24 06:57:00,
2013-06-24 02:05:00,69.0,68.0,29.94,SSW,211,0.0,0.0,96,0.00,,,0.02,,2013-06-24 07:05:00,
2013-06-24 02:14:00,69.0,68.0,29.94,SSW,211,0.0,0.0,96,0.00,,,0.02,,2013-06-24 07:14:00,
2013-06-24 02:29:00,69.0,68.0,29.94,SSW,211,0.0,1.0,96,0.00,,,0.02,,2013-06-24 07:29:00,
2013-06-24 02:36:00,68.0,67.0,29.94,SSW,211,0.0,1.0,96,0.00,,,0.02,,2013-06-24 07:36:00,
2013-06-24 02:46:00,68.0,67.0,29.94,SSW,211,0.0,1.0,96,0.00,,,0.02,,2013-06-24 07:46:00,
2013-06-24 02:57:00,68.0,66.0,29.93,SW,232,0.0,1.0,94,0.00,,,0.02,,2013-06-24 07:57:00,
2013-06-24 03:04:00,68.0,66.0,29.95,SW,232,0.0,2.0,92,0.00,,,0.02,,2013-06-24 08:04:00,
2013-06-24 03:14:00,68.0,66.0,29.95,SW,232,0.0,2.0,92,0.00,,,0.02,,2013-06-24 08:14:00,
2013-06-24 03:26:00,68.0,66.0,29.96,South,177,0.0,3.0,92,0.00,,,0.02,,2013-06-24 08:26:00,
2013-06-24 03:35:00,68.0,66.0,29.97,SE,133,1.0,4.0,93,0.00,,,0.02,,2013-06-24 08:35:00,
2013-06-24 03:46:00,68.0,66.0,29.97,SE,133,1.0,4.0,93,0.00,,,0.02,,2013-06-24 08:46:00,
2013-06-24 03:55:00,68.0,65.0,29.96,SSE,159,1.0,8.0,90,0.00,,,0.02,,2013-06-24 08:55:00,
2013-06-24 04:05:00,68.0,65.0,29.96,SSW,199,0.0,6.0,90,0.00,,,0.02,,2013-06-24 09:05:00,
2013-06-24 04:15:00,68.0,65.0,29.96,SSW,199,0.0,6.0,90,0.00,,,0.02,,2013-06-24 09:15:00,
2013-06-24 04:36:00,68.0,65.0,29.98,South,180,1.0,6.0,91,0.00,,,0.02,,2013-06-24 09:36:00,
2013-06-24 04:47:00,68.0,65.0,29.98,South,180,1.0,6.0,91,0.00,,,0.02,,2013-06-24 09:47:00,
2013-06-24 05:00:00,68.0,66.0,29.99,WSW,254,3.0,7.0,92,0.00,,,0.02,,2013-06-24 10:00:00,
2013-06-24 05:14:00,68.0,65.0,29.98,SE,130,1.0,6.0,90,0.00,,,0.02,,2013-06-24 10:14:00,
2013-06-24 05:23:00,68.0,65.0,29.98,South,169,0.0,4.0,90,0.00,,,0.02,,2013-06-24 10:23:00,
2013-06-24 05:37:00,68.0,65.0,29.99,SSE,153,0.0,3.0,91,0.00,,,0.02,,2013-06-24 10:37:00,
2013-06-24 06:03:00,68.0,65.0,30.00,South,180,2.0,9.0,91,0.00,,,0.02,,2013-06-24 11:03:00,
2013-06-24 06:29:00,68.0,66.0,30.01,NNE,22,1.0,4.0,92,0.00,,,0.02,,2013-06-24 11:29:00,
2013-06-24 06:34:00,68.0,66.0,30.03,ESE,105,2.0,5.0,92,0.00,,,0.02,,2013-06-24 11:34:00,
2013-06-24 06:46:00,68.0,66.0,30.03,ESE,105,2.0,5.0,92,0.00,,,0.02,,2013-06-24 11:46:00,
2013-06-24 07:05:00,67.0,65.0,30.02,SE,136,0.0,2.0,93,0.03,,,0.05,,2013-06-24 12:05:00,
2013-06-24 07:16:00,67.0,65.0,30.02,SE,136,0.0,2.0,93,0.03,,,0.05,,2013-06-24 12:16:00,
2013-06-24 07:23:00,67.0,65.0,30.02,SE,136,0.0,3.0,94,0.06,,,0.08,,2013-06-24 12:23:00,
2013-06-24 07:36:00,67.0,66.0,30.03,North,360,2.0,6.0,95,0.09,,,0.11,,2013-06-24 12:36:00,
2013-06-24 07:47:00,67.0,66.0,30.03,North,360,2.0,6.0,95,0.09,,,0.11,,2013-06-24 12:47:00,
2013-06-24 07:55:00,66.0,65.0,30.04,ENE,76,0.0,5.0,95,0.11,,,0.15,,2013-06-24 12:55:00,
2013-06-24 08:06:00,66.0,65.0,30.04,NNE,22,3.0,4.0,96,0.11,,,0.16,,2013-06-24 13:06:00,
2013-06-24 08:14:00,66.0,65.0,30.04,NNE,22,3.0,4.0,96,0.11,,,0.16,,2013-06-24 13:14:00,
2013-06-24 08:36:00,66.0,65.0,30.05,North,360,1.0,4.0,96,0.08,,,0.19,,2013-06-24 13:36:00,
2013-06-24 08:43:00,66.0,65.0,30.05,North,360,1.0,4.0,96,0.08,,,0.19,,2013-06-24 13:43:00,
2013-06-24 08:57:00,66.0,65.0,30.06,NNE,13,1.0,8.0,96,0.07,,,0.22,,2013-06-24 13:57:00,
2013-06-24 09:02:00,66.0,65.0,30.04,East,84,0.0,4.0,96,0.14,,,0.30,,2013-06-24 14:02:00,
2013-06-24 09:16:00,66.0,65.0,30.04,East,84,0.0,4.0,96,0.14,,,0.30,,2013-06-24 14:16:00,
2013-06-24 09:36:00,66.0,65.0,30.02,SSE,148,0.0,3.0,97,0.11,,,0.30,,2013-06-24 14:36:00,
2013-06-24 09:45:00,66.0,65.0,30.02,SSE,148,0.0,3.0,97,0.11,,,0.30,,2013-06-24 14:45:00,
2013-06-24 09:59:00,66.0,65.0,30.03,South,184,1.0,4.0,96,0.06,,,0.30,,2013-06-24 14:59:00,
2013-06-24 10:05:00,67.0,66.0,30.03,South,188,0.0,2.0,97,0.00,,,0.30,,2013-06-24 15:05:00,
2013-06-24 10:14:00,67.0,66.0,30.03,South,188,0.0,2.0,97,0.00,,,0.30,,2013-06-24 15:14:00,
2013-06-24 10:27:00,67.0,66.0,30.03,WSW,242,0.0,2.0,96,0.00,,,0.30,,2013-06-24 15:27:00,
2013-06-24 10:36:00,68.0,67.0,30.04,North,5,2.0,4.0,96,0.00,,,0.30,,2013-06-24 15:36:00,
2013-06-24 10:45:00,68.0,67.0,30.04,North,5,2.0,4.0,96,0.00,,,0.30,,2013-06-24 15:45:00,
2013-06-24 10:57:00,69.0,67.0,30.04,North,360,0.0,3.0,94,0.00,,,0.30,,2013-06-24 15:57:00,
2013-06-24 11:03:00,70.0,68.0,30.02,NNE,15,0.0,3.0,92,0.00,,,0.30,,2013-06-24 16:03:00,
2013-06-24 11:24:00,71.0,69.0,30.00,South,170,1.0,4.0,92,0.00,,,0.30,,2013-06-24 16:24:00,
2013-06-24 11:35:00,72.0,69.0,29.98,SSW,202,1.0,4.0,91,0.00,,,0.30,,2013-06-24 16:35:00,
2013-06-24 11:43:00,72.0,69.0,29.98,SSW,202,1.0,4.0,91,0.00,,,0.30,,2013-06-24 16:43:00,
2013-06-24 11:56:00,72.0,68.0,29.97,SSE,158,4.0,8.0,88,0.00,,,0.30,,2013-06-24 16:56:00,
2013-06-24 12:05:00,73.0,69.0,29.96,South,172,5.0,10.0,86,0.00,,,0.30,,2013-06-24 17:05:00,
2013-06-24 12:14:00,73.0,69.0,29.96,South,172,5.0,10.0,86,0.00,,,0.30,,2013-06-24 17:14:00,
2013-06-24 12:24:00,75.0,70.0,29.95,SSW,211,1.0,12.0,85,0.00,,,0.30,,2013-06-24 17:24:00,
2013-06-24 12:46:00,76.0,70.0,29.94,WSW,243,5.0,12.0,83,0.00,,,0.30,,2013-06-24 17:46:00,
2013-06-24 12:57:00,76.0,70.0,29.94,SSE,156,3.0,8.0,83,0.00,,,0.30,,2013-06-24 17:57:00,
2013-06-24 13:02:00,76.0,70.0,29.93,South,179,2.0,11.0,82,0.00,,,0.30,,2013-06-24 18:02:00,
2013-06-24 13:14:00,76.0,70.0,29.93,South,179,2.0,11.0,82,0.00,,,0.30,,2013-06-24 18:14:00,
2013-06-24 13:25:00,77.0,70.0,29.93,SW,221,4.0,14.0,80,0.00,,,0.30,,2013-06-24 18:25:00,
2013-06-24 13:35:00,78.0,72.0,29.92,West,265,4.0,15.0,81,0.00,,,0.30,,2013-06-24 18:35:00,
2013-06-24 13:46:00,78.0,72.0,29.92,West,265,4.0,15.0,81,0.00,,,0.30,,2013-06-24 18:46:00,
2013-06-24 13:55:00,79.0,73.0,29.93,South,179,5.0,14.0,81,0.00,,,0.30,,2013-06-24 18:55:00,
2013-06-24 14:06:00,79.0,72.0,29.93,SSW,213,3.0,12.0,79,0.00,,,0.30,,2013-06-24 19:06:00,
2013-06-24 14:13:00,79.0,72.0,29.93,SSW,213,3.0,12.0,79,0.00,,,0.30,,2013-06-24 19:13:00,
2013-06-24 14:25:00,80.0,72.0,29.92,SSW,196,3.0,9.0,78,0.00,,,0.30,,2013-06-24 19:25:00,
2013-06-24 14:36:00,82.0,74.0,29.92,WNW,287,3.0,11.0,76,0.00,,,0.30,,2013-06-24 19:36:00,
2013-06-24 14:45:00,82.0,74.0,29.92,WNW,287,3.0,11.0,76,0.00,,,0.30,,2013-06-24 19:45:00,
2013-06-24 14:54:00,84.0,74.0,29.91,WSW,249,3.0,13.0,73,0.00,,,0.30,,2013-06-24 19:54:00,
2013-06-24 15:05:00,84.0,74.0,29.91,SSW,208,2.0,12.0,71,0.00,,,0.30,,2013-06-24 20:05:00,
2013-06-24 15:24:00,85.0,74.0,29.91,SSW,202,3.0,13.0,70,0.00,,,0.30,,2013-06-24 20:24:00,
2013-06-24 15:34:00,85.0,74.0,29.91,SSW,202,3.0,13.0,70,0.00,,,0.30,,2013-06-24 20:34:00,
2013-06-24 15:45:00,85.0,74.0,29.91,SW,217,3.0,8.0,70,0.00,,,0.30,,2013-06-24 20:45:00,
2013-06-24 15:54:00,85.0,74.0,29.91,WSW,255,3.0,11.0,70,0.00,,,0.30,,2013-06-24 20:54:00,
2013-06-24 16:04:00,85.0,74.0,29.91,WSW,255,3.0,11.0,70,0.00,,,0.30,,2013-06-24 21:04:00,
2013-06-24 16:13:00,85.0,74.0,29.91,WSW,250,3.0,11.0,70,0.00,,,0.30,,2013-06-24 21:13:00,
2013-06-24 16:25:00,85.0,74.0,29.92,East,82,3.0,11.0,70,0.00,,,0.30,,2013-06-24 21:25:00,
2013-06-24 16:37:00,85.0,74.0,29.92,East,82,3.0,11.0,70,0.00,,,0.30,,2013-06-24 21:37:00,
2013-06-24 16:46:00,85.0,73.0,29.93,SW,217,2.0,10.0,68,0.00,,,0.30,,2013-06-24 21:46:00,
2013-06-24 16:53:00,85.0,75.0,29.92,WNW,294,3.0,8.0,71,0.00,,,0.30,,2013-06-24 21:53:00,
2013-06-24 17:15:00,85.0,74.0,29.93,SE,140,1.0,10.0,70,0.00,,,0.30,,2013-06-24 22:15:00,
2013-06-24 17:23:00,84.0,74.0,29.93,SE,126,2.0,7.0,72,0.00,,,0.30,,2013-06-24 22:23:00,
2013-06-24 17:36:00,84.0,74.0,29.93,SE,126,2.0,7.0,72,0.00,,,0.30,,2013-06-24 22:36:00,
2013-06-24 18:26:00,67.0,65.0,29.95,SSW,211,1.0,6.0,93,0.25,,,0.55,,2013-06-24 23:26:00,
2013-06-24 18:34:00,67.0,65.0,29.95,SSW,211,1.0,6.0,93,0.25,,,0.55,,2013-06-24 23:34:00,
2013-06-24 18:45:00,67.0,65.0,29.91,NE,44,0.0,2.0,94,0.24,,,0.56,,2013-06-24 23:45:00,
2013-06-24 18:53:00,67.0,66.0,29.89,NE,53,0.0,2.0,95,0.04,,,0.56,,2013-06-24 23:53:00,
2013-06-24 19:04:00,67.0,66.0,29.89,NE,53,0.0,2.0,95,0.04,,,0.56,,2013-06-25 00:04:00,
2013-06-24 19:12:00,67.0,66.0,29.87,South,184,1.0,8.0,95,0.01,,,0.56,,2013-06-25 00:12:00,
2013-06-24 19:24:00,67.0,65.0,29.84,SSE,159,2.0,4.0,94,0.01,,,0.55,,2013-06-25 00:24:00,
2013-06-24 19:34:00,67.0,65.0,29.84,SSE,159,2.0,4.0,94,0.01,,,0.55,,2013-06-25 00:34:00,
2013-06-24 19:46:00,67.0,65.0,29.86,South,188,1.0,4.0,93,0.00,,,0.55,,2013-06-25 00:46:00,
2013-06-24 19:54:00,67.0,65.0,29.88,NW,323,0.0,4.0,94,0.00,,,0.55,,2013-06-25 00:54:00,
2013-06-24 20:03:00,67.0,65.0,29.88,NW,323,0.0,4.0,94,0.00,,,0.55,,2013-06-25 01:03:00,
2013-06-24 20:16:00,67.0,66.0,29.87,SSW,198,0.0,2.0,95,0.00,,,0.55,,2013-06-25 01:16:00,
2013-06-24 20:23:00,67.0,66.0,29.86,NW,315,1.0,2.0,95,0.00,,,0.55,,2013-06-25 01:23:00,
2013-06-24 20:44:00,67.0,66.0,29.88,SSW,213,1.0,4.0,96,0.00,,,0.55,,2013-06-25 01:44:00,
2013-06-24 20:55:00,67.0,66.0,29.90,SSE,167,0.0,3.0,96,0.00,,,0.55,,2013-06-25 01:55:00,
2013-06-24 21:05:00,67.0,66.0,29.90,SSE,167,0.0,3.0,96,0.00,,,0.55,,2013-06-25 02:05:00,
2013-06-24 21:16:00,67.0,66.0,29.89,SSE,167,0.0,2.0,96,0.00,,,0.55,,2013-06-25 02:16:00,
2013-06-24 21:36:00,67.0,66.0,29.89,SSE,167,0.0,1.0,96,0.00,,,0.55,,2013-06-25 02:36:00,
2013-06-24 21:45:00,67.0,66.0,29.89,SSE,167,0.0,0.0,96,0.00,,,0.55,,2013-06-25 02:45:00,
2013-06-24 21:56:00,67.0,66.0,29.89,SSE,167,0.0,0.0,96,0.00,,,0.55,,2013-06-25 02:56:00,
2013-06-24 22:15:00,67.0,66.0,29.89,SSE,167,0.0,0.0,96,0.00,,,0.55,,2013-06-25 03:15:00,
2013-06-24 22:31:00,67.0,66.0,29.89,SSE,167,0.0,0.0,97,0.00,,,0.55,,2013-06-25 03:31:00,
2013-06-24 23:02:00,67.0,66.0,29.91,SSE,167,0.0,0.0,97,0.00,,,0.55,,2013-06-25 04:02:00,
2013-06-24 23:11:00,67.0,66.0,29.92,South,181,0.0,0.0,97,0.00,,,0.55,,2013-06-25 04:11:00,
2013-06-24 23:22:00,67.0,66.0,29.92,South,181,0.0,0.0,97,0.00,,,0.55,,2013-06-25 04:22:00,
2013-06-24 23:34:00,67.0,66.0,29.92,South,181,0.0,0.0,97,0.00,,,0.55,,2013-06-25 04:34:00,
2013-06-24 23:43:00,67.0,66.0,29.92,South,181,0.0,0.0,97,0.00,,,0.55,,2013-06-25 04:43:00,
2013-06-24 23:52:00,67.0,66.0,29.91,South,181,0.0,0.0,97,0.00,,,0.55,,2013-06-25 04:52:00,